Simultaneous Nadir Overpasses (SNOs) Predictions

Prediction of SNOs between GOES-14 and NOAA-20 Satellite Orbit:

Table of predicted SNOs for the next 14.0 days since TLE Epoch: 4/16/2022
Index Date Time (GOES-14) GOES-14 Lat,Lon NOAA-20 Lat,Lon Distance(km) Time Diff (sec)
1 04/17/2022 08:36:55 0.12,-104.47 0.92,-108.05 407.80 80
2 04/18/2022 08:20:51 0.12,-104.48 -0.07,-103.51 109.52 80
3 04/19/2022 20:42:48 -0.11,-104.52 -1.10,-108.82 490.86 80
4 04/20/2022 20:21:25 -0.12,-104.50 -0.05,-104.30 24.53 80
5 04/23/2022 08:24:28 0.12,-104.45 0.25,-105.02 65.32 80
6 04/24/2022 08:08:24 0.12,-104.46 -0.74,-100.49 451.88 80
7 04/25/2022 20:30:21 -0.11,-104.51 -0.42,-105.80 146.95 80
8 04/26/2022 20:08:57 -0.12,-104.50 0.58,-101.26 368.87 80
9 04/28/2022 08:30:46 0.11,-104.44 0.56,-106.54 238.64 80
10 04/29/2022 08:14:42 0.11,-104.45 -0.44,-102.00 279.03 80
